OK,65,52,933,65,2014-10-01T01:40:00,0,28072703,192893
OK,65,52,933,65,2014-10-01T01:45:00,0,28073150,192893
OK,65,52,933,65,2014-10-01T01:50:00,0,28073598,192893
OK,65,52,933,65,2014-10-01T01:55:00,0,28073916,192893
OK,65,52,933,65,2014-10-01T02:00:00,0,28074365,192893
OK,65,52,933,65,2014-10-01T02:05:00,0,28074806,192893
OK,65,52,933,65,2014-10-01T02:10:00,0,28075254,192893
OK,65,52,933,65,2014-10-01T02:15:00,0,28075703,192893
OK,65,52,933,65,2014-10-01T02:20:00,0,28076086,192893
OK,65,52,933,65,2014-10-01T02:25:00,0,28076535,192893
OK,65,52,933,65,2014-10-01T02:30:00,0,28076984,192893
OK,65,52,933,65,2014-10-01T02:35:00,0,28077433,192893
OK,65,52,933,65,2014-10-01T02:40:00,0,28077836,192893
OK,65,52,933,65,2014-10-01T02:45:00,0,28078285,192893
OK,65,52,933,65,2014-10-01T02:50:00,0,28078730,192893
OK,65,52,933,65,2014-10-01T02:55:00,0,28079179,192893
OK,65,52,933,65,2014-10-01T03:00:00,0,28079621,192893
OK,65,52,933,65,2014-10-01T03:05:00,0,28080070,192893
OK,65,52,933,65,2014-10-01T03:10:00,0,28080404,192893
OK,65,52,933,65,2014-10-01T03:15:00,0,28080853,192893
OK,65,52,933,65,2014-10-01T03:20:00,0,28081302,192893
OK,65,52,933,65,2014-10-01T03:25:00,0,28081749,192893
OK,65,52,933,65,2014-10-01T03:30:00,0,28082198,192893
OK,65,52,933,65,2014-10-01T03:35:00,0,28082631,192893
OK,65,52,933,65,2014-10-01T03:40:00,0,28083063,192893
OK,65,52,933,65,2014-10-01T03:45:00,0,28083512,192893
OK,65,52,933,65,2014-10-01T03:50:00,0,28083961,192893
OK,65,52,933,65,2014-10-01T03:55:00,0,28084402,192893
OK,65,52,933,65,2014-10-01T04:00:00,0,28084827,192893
OK,65,52,933,65,2014-10-01T04:05:00,0,28085276,192893
OK,65,52,933,65,2014-10-01T04:10:00,0,28085721,192893
OK,65,52,933,65,2014-10-01T04:15:00,0,28086170,192893
OK,65,52,933,65,2014-10-01T04:20:00,0,28086612,192893
OK,65,52,933,65,2014-10-01T04:25:00,0,28087061,192893
OK,65,52,933,65,2014-10-01T04:30:00,0,28087506,192893
OK,65,52,933,65,2014-10-01T04:35:00,0,28087955,192893
OK,65,52,933,65,2014-10-01T04:40:00,0,28088379,192893
OK,65,52,933,65,2014-10-01T04:45:00,0,28088828,192893
OK,65,52,933,65,2014-10-01T04:50:00,0,28089258,192893
OK,65,52,933,65,2014-10-01T04:55:00,0,28089707,192893
OK,65,52,933,65,2014-10-01T05:00:00,0,28090156,192893
OK,65,52,933,65,2014-10-01T05:05:00,0,28090504,192893
OK,65,52,933,65,2014-10-01T05:10:00,0,28090949,192893
OK,65,52,933,65,2014-10-01T05:15:00,0,28091398,192893
OK,65,52,933,65,2014-10-01T05:20:00,0,28091815,192893
OK,65,52,933,65,2014-10-01T05:25:00,0,28092264,192893
OK,65,52,933,65,2014-10-01T05:30:00,0,28092708,192893
OK,65,52,933,65,2014-10-01T05:35:00,0,28093149,192893
OK,65,52,933,65,2014-10-01T05:40:00,0,28093580,192893
OK,65,52,933,65,2014-10-01T05:45:00,0,28094029,192893
OK,65,52,933,65,2014-10-01T05:50:00,0,28094440,192893
OK,65,52,933,65,2014-10-01T05:55:00,0,28094885,192893
OK,65,52,933,65,2014-10-01T06:00:00,0,28095332,192893
OK,65,52,933,65,2014-10-01T06:05:00,0,28095781,192893
OK,65,52,933,65,2014-10-01T06:10:00,0,28096194,192893
OK,65,52,933,65,2014-10-01T06:15:00,0,28096643,192893
OK,65,52,933,65,2014-10-01T06:20:00,0,28097077,192893
OK,65,52,933,65,2014-10-01T06:25:00,0,28097526,192893
OK,65,52,933,65,2014-10-01T06:30:00,0,28097975,192893
OK,65,52,933,65,2014-10-01T06:35:00,0,28098412,192893
OK,65,52,933,65,2014-10-01T06:40:00,0,28098856,192893
OK,65,52,933,65,2014-10-01T06:45:00,0,28099304,192893
OK,112,30,933,112,2014-10-01T06:50:00,2,28099647,192893
OK,152,22,933,152,2014-10-01T06:55:00,1,28100096,192893
OK,132,25,933,132,2014-10-01T07:00:00,2,28100403,192893
OK,132,25,933,132,2014-10-01T07:05:00,2,28100852,192893
OK,132,25,933,132,2014-10-01T07:10:00,0,28101223,192893
OK,132,25,933,132,2014-10-01T07:15:00,0,28101672,192893
OK,132,25,933,132,2014-10-01T07:20:00,0,28102108,192893
OK,132,25,933,132,2014-10-01T07:25:00,0,28102557,192893
OK,264,12,933,264,2014-10-01T07:30:00,1,28102985,192893
OK,264,12,933,264,2014-10-01T07:35:00,0,28103431,192893
OK,264,12,933,264,2014-10-01T07:40:00,0,28103876,192893
OK,264,12,933,264,2014-10-01T07:45:00,0,28104321,192893
OK,264,12,933,264,2014-10-01T07:50:00,0,28104762,192893
OK,264,12,933,264,2014-10-01T07:55:00,0,28105207,192893
OK,264,12,933,264,2014-10-01T08:00:00,0,28105647,192893
OK,264,12,933,264,2014-10-01T08:05:00,0,28106096,192893
OK,264,12,933,264,2014-10-01T08:10:00,0,28106533,192893
OK,264,12,933,264,2014-10-01T08:15:00,0,28106939,192893
OK,264,12,933,264,2014-10-01T08:20:00,0,28107371,192893
OK,264,12,933,264,2014-10-01T08:25:00,0,28107820,192893
OK,264,12,933,264,2014-10-01T08:30:00,0,28108259,192893
OK,92,37,933,92,2014-10-01T08:35:00,1,28108708,192893
OK,92,37,933,92,2014-10-01T08:40:00,1,28109136,192893
OK,92,37,933,92,2014-10-01T08:45:00,0,28109585,192893
OK,92,37,933,92,2014-10-01T08:50:00,0,28109928,192893
OK,92,37,933,92,2014-10-01T08:55:00,0,28110377,192893
OK,92,37,933,92,2014-10-01T09:00:00,0,28110800,192893
OK,92,37,933,92,2014-10-01T09:05:00,0,28111249,192893
OK,97,35,933,97,2014-10-01T09:10:00,1,28111678,192893
OK,89,38,933,89,2014-10-01T09:15:00,2,28112127,192893
OK,82,41,933,82,2014-10-01T09:20:00,1,28112468,192893
OK,82,41,933,82,2014-10-01T09:25:00,0,28112917,192893
OK,82,41,933,82,2014-10-01T09:30:00,0,28113341,192893
OK,82,41,933,82,2014-10-01T09:35:00,0,28113790,192893
OK,82,41,933,82,2014-10-01T09:40:00,0,28114222,192893
OK,82,41,933,82,2014-10-01T09:45:00,0,28114671,192893
OK,104,32,933,104,2014-10-01T09:50:00,3,28115025,192893
OK,104,32,933,104,2014-10-01T09:55:00,5,28115474,192893
OK,100,34,933,100,2014-10-01T10:00:00,3,28115886,192893
OK,135,25,933,135,2014-10-01T10:05:00,2,28116335,192893
OK,195,17,933,195,2014-10-01T10:10:00,1,28116743,192893
OK,195,17,933,195,2014-10-01T10:15:00,0,28117192,192893
OK,64,53,933,64,2014-10-01T10:20:00,1,28117617,192893
OK,64,53,933,64,2014-10-01T10:25:00,1,28118066,192893
OK,64,53,933,64,2014-10-01T10:30:00,0,28118511,192893
OK,247,13,933,247,2014-10-01T10:35:00,1,28118958,192893
OK,247,13,933,247,2014-10-01T10:40:00,1,28119402,192893
OK,247,13,933,247,2014-10-01T10:45:00,0,28119850,192893
OK,247,13,933,247,2014-10-01T10:50:00,0,28120298,192893
OK,247,13,933,247,2014-10-01T10:55:00,0,28120747,192893
OK,247,13,933,247,2014-10-01T11:00:00,0,28121130,192893
OK,247,13,933,247,2014-10-01T11:05:00,0,28121579,192893
OK,295,11,933,295,2014-10-01T11:10:00,1,28122017,192893
OK,295,11,933,295,2014-10-01T11:15:00,1,28122466,192893
OK,295,11,933,295,2014-10-01T11:20:00,0,28122907,192893
OK,295,11,933,295,2014-10-01T11:25:00,0,28123356,192893
OK,295,11,933,295,2014-10-01T11:30:00,0,28123788,192893
OK,295,11,933,295,2014-10-01T11:35:00,0,28124237,192893
OK,295,11,933,295,2014-10-01T11:40:00,0,28124639,192893
OK,295,11,933,295,2014-10-01T11:45:00,0,28125088,192893
OK,295,11,933,295,2014-10-01T11:50:00,0,28125517,192893
OK,65,52,933,65,2014-10-01T11:55:00,1,28125966,192893
OK,65,52,933,65,2014-10-01T12:00:00,0,28126318,192893
OK,65,52,933,65,2014-10-01T12:05:00,0,28126767,192893
OK,65,52,933,65,2014-10-01T12:10:00,0,28127216,192893
OK,65,52,933,65,2014-10-01T12:15:00,0,28127665,192893
OK,65,52,933,65,2014-10-01T12:20:00,0,28128093,192893
OK,65,52,933,65,2014-10-01T12:25:00,0,28128542,192893
OK,65,52,933,65,2014-10-01T12:30:00,0,28128977,192893
OK,382,8,933,382,2014-10-01T12:35:00,2,28129426,192893
OK,382,8,933,382,2014-10-01T12:40:00,2,28129860,192893
OK,382,8,933,382,2014-10-01T12:45:00,0,28130309,192893
OK,177,19,933,177,2014-10-01T12:50:00,2,28130737,192893
OK,267,12,933,267,2014-10-01T12:55:00,1,28131186,192893
OK,267,12,933,267,2014-10-01T13:00:00,0,28131623,192893
OK,267,12,933,267,2014-10-01T13:05:00,0,28132072,192893
OK,267,12,933,267,2014-10-01T13:10:00,0,28132510,192893
OK,267,12,933,267,2014-10-01T13:15:00,0,28132957,192893
OK,267,12,933,267,2014-10-01T13:20:00,0,28133395,192893
OK,267,12,933,267,2014-10-01T13:25:00,0,28133844,192893
OK,187,18,933,187,2014-10-01T13:30:00,1,28134283,192893
OK,187,18,933,187,2014-10-01T13:35:00,1,28134732,192893
OK,187,18,933,187,2014-10-01T13:40:00,0,28135151,192893
OK,187,18,933,187,2014-10-01T13:45:00,0,28135600,192893
OK,187,18,933,187,2014-10-01T13:50:00,0,28136037,192893
OK,187,18,933,187,2014-10-01T13:55:00,0,28136486,192893
OK,187,18,933,187,2014-10-01T14:00:00,0,28136926,192893
OK,128,26,933,128,2014-10-01T14:05:00,1,28137375,192893
OK,128,26,933,128,2014-10-01T14:10:00,1,28137809,192893
OK,128,26,933,128,2014-10-01T14:15:00,0,28138258,192893
OK,128,26,933,128,2014-10-01T14:20:00,0,28138686,192893
OK,128,26,933,128,2014-10-01T14:25:00,0,28139135,192893
OK,128,26,933,128,2014-10-01T14:30:00,0,28139546,192893
OK,128,26,933,128,2014-10-01T14:35:00,0,28139995,192893
OK,128,26,933,128,2014-10-01T14:40:00,0,28140437,192893
OK,128,26,933,128,2014-10-01T14:45:00,0,28140886,192893
OK,122,27,933,122,2014-10-01T14:50:00,1,28141312,192893
OK,101,33,933,101,2014-10-01T14:55:00,2,28141761,192893
OK,93,36,933,93,2014-10-01T15:00:00,2,28142189,192893
OK,105,32,933,105,2014-10-01T15:05:00,1,28142638,192893
OK,105,32,933,105,2014-10-01T15:10:00,0,28143065,192893
OK,105,32,933,105,2014-10-01T15:15:00,0,28143514,192893
OK,105,32,933,105,2014-10-01T15:20:00,0,28143962,192893
OK,105,32,933,105,2014-10-01T15:25:00,0,28144411,192893
OK,105,32,933,105,2014-10-01T15:35:00,0,28145246,192893
OK,105,32,933,105,2014-10-01T15:40:00,0,28145695,192893
OK,103,33,933,103,2014-10-01T15:45:00,1,28146144,192893
OK,103,33,933,103,2014-10-01T15:50:00,0,28146593,192893
OK,103,33,933,103,2014-10-01T15:55:00,0,28147001,192893
OK,103,33,933,103,2014-10-01T16:00:00,0,28147445,192893
OK,103,33,933,103,2014-10-01T16:05:00,0,28147894,192893
OK,103,33,933,103,2014-10-01T16:10:00,0,28148295,192893
OK,103,33,933,103,2014-10-01T16:15:00,0,28148744,192893
OK,103,33,933,103,2014-10-01T16:20:00,0,28149183,192893
OK,103,33,933,103,2014-10-01T16:25:00,0,28149632,192893
OK,46,74,933,46,2014-10-01T16:30:00,1,28150058,192893
OK,46,74,933,46,2014-10-01T16:35:00,0,28150507,192893
OK,46,74,933,46,2014-10-01T16:40:00,0,28150925,192893
OK,46,74,933,46,2014-10-01T16:45:00,0,28151374,192893
OK,94,36,933,94,2014-10-01T16:50:00,1,28151823,192893
OK,94,36,933,94,2014-10-01T17:00:00,0,28152272,192893
OK,94,36,933,94,2014-10-01T17:05:00,0,28152718,192893
OK,94,36,933,94,2014-10-01T17:10:00,0,28153165,192893
OK,94,36,933,94,2014-10-01T17:15:00,0,28153614,192893
OK,94,36,933,94,2014-10-01T17:20:00,0,28154024,192893
OK,94,36,933,94,2014-10-01T17:25:00,0,28154473,192893
OK,94,36,933,94,2014-10-01T17:30:00,0,28154915,192893
OK,94,36,933,94,2014-10-01T17:35:00,0,28155363,192893
OK,94,36,933,94,2014-10-01T17:40:00,0,28155781,192893
OK,94,36,933,94,2014-10-01T17:45:00,0,28156230,192893
OK,94,36,933,94,2014-10-01T17:50:00,0,28156679,192893
OK,94,36,933,94,2014-10-01T17:55:00,0,28157117,192893
OK,94,36,933,94,2014-10-01T18:00:00,0,28157547,192893
OK,94,36,933,94,2014-10-01T18:05:00,0,28157995,192893
OK,94,36,933,94,2014-10-01T18:10:00,0,28158439,192893
OK,94,36,933,94,2014-10-01T18:15:00,0,28158885,192893
OK,94,36,933,94,2014-10-01T18:20:00,0,28159331,192893
OK,94,36,933,94,2014-10-01T18:25:00,0,28159666,192893
OK,94,36,933,94,2014-10-01T18:30:00,0,28160115,192893
OK,94,36,933,94,2014-10-01T18:35:00,0,28160564,192893
OK,94,36,933,94,2014-10-01T18:40:00,0,28161002,192893
OK,94,36,933,94,2014-10-01T18:45:00,0,28161451,192893
OK,64,53,933,64,2014-10-01T18:50:00,1,28161868,192893
OK,64,53,933,64,2014-10-01T18:55:00,0,28162317,192893
OK,64,53,933,64,2014-10-01T19:00:00,0,28162711,192893
OK,64,53,933,64,2014-10-01T19:05:00,0,28163150,192893
OK,64,53,933,64,2014-10-01T19:10:00,0,28163598,192893
OK,64,53,933,64,2014-10-01T19:15:00,0,28164047,192893
OK,64,53,933,64,2014-10-01T19:20:00,0,28164478,192893
OK,64,53,933,64,2014-10-01T19:25:00,0,28164927,192893
OK,64,53,933,64,2014-10-01T19:30:00,0,28165352,192893
OK,64,53,933,64,2014-10-01T19:35:00,0,28165800,192893
OK,64,53,933,64,2014-10-01T19:40:00,0,28166241,192893
OK,64,53,933,64,2014-10-01T19:45:00,0,28166603,192893
OK,64,53,933,64,2014-10-01T19:50:00,0,28167052,192893
OK,64,53,933,64,2014-10-01T19:55:00,0,28167481,192893
OK,64,53,933,64,2014-10-01T20:00:00,0,28167914,192893
OK,64,53,933,64,2014-10-01T20:05:00,0,28168363,192893
OK,64,53,933,64,2014-10-01T20:10:00,0,28168808,192893
OK,64,53,933,64,2014-10-01T20:15:00,0,28169257,192893
OK,64,53,933,64,2014-10-01T20:20:00,0,28169705,192893
OK,64,53,933,64,2014-10-01T20:25:00,0,28170131,192893
OK,64,53,933,64,2014-10-01T20:30:00,0,28170576,192893
OK,64,53,933,64,2014-10-01T20:35:00,0,28171024,192893
OK,64,53,933,64,2014-10-01T20:40:00,0,28171461,192893
OK,64,53,933,64,2014-10-01T20:45:00,0,28171907,192893
OK,64,53,933,64,2014-10-01T20:50:00,0,28172355,192893
OK,64,53,933,64,2014-10-01T20:55:00,0,28172801,192893
OK,64,53,933,64,2014-10-01T21:00:00,0,28173247,192893
OK,64,53,933,64,2014-10-01T21:05:00,0,28173696,192893
OK,64,53,933,64,2014-10-01T21:10:00,0,28174137,192893
OK,64,53,933,64,2014-10-01T21:15:00,0,28174586,192893
OK,64,53,933,64,2014-10-01T21:20:00,0,28175012,192893
OK,64,53,933,64,2014-10-01T21:25:00,0,28175408,192893
OK,64,53,933,64,2014-10-01T21:30:00,0,28175857,192893
OK,64,53,933,64,2014-10-01T21:35:00,0,28176306,192893
OK,64,53,933,64,2014-10-01T21:40:00,0,28176755,192893
OK,64,53,933,64,2014-10-01T21:45:00,0,28177111,192893
OK,64,53,933,64,2014-10-01T21:50:00,0,28177551,192893
OK,64,53,933,64,2014-10-01T21:55:00,0,28177997,192893
OK,64,53,933,64,2014-10-01T22:00:00,0,28178446,192893
OK,64,53,933,64,2014-10-01T22:05:00,0,28178893,192893
OK,64,53,933,64,2014-10-01T22:10:00,0,28179327,192893
OK,64,53,933,64,2014-10-01T22:15:00,0,28179770,192893
OK,64,53,933,64,2014-10-01T22:20:00,0,28180217,192893
OK,64,53,933,64,2014-10-01T22:25:00,0,28180615,192893
OK,64,53,933,64,2014-10-01T22:30:00,0,28181064,192893
OK,64,53,933,64,2014-10-01T22:35:00,0,28181488,192893
OK,64,53,933,64,2014-10-01T22:40:00,0,28181936,192893
OK,64,53,933,64,2014-10-01T22:45:00,0,28182383,192893
OK,64,53,933,64,2014-10-01T22:50:00,0,28182832,192893
OK,64,53,933,64,2014-10-01T22:55:00,0,28183249,192893
OK,64,53,933,64,2014-10-01T23:00:00,0,28183682,192893
OK,64,53,933,64,2014-10-01T23:05:00,0,28184127,192893
OK,64,53,933,64,2014-10-01T23:10:00,0,28184576,192893
OK,64,53,933,64,2014-10-01T23:15:00,0,28185011,192893
OK,64,53,933,64,2014-10-01T23:20:00,0,28185459,192893
OK,64,53,933,64,2014-10-01T23:25:00,0,28185890,192893
OK,64,53,933,64,2014-10-01T23:30:00,0,28186282,192893
OK,64,53,933,64,2014-10-01T23:40:00,0,28187129,192893
OK,64,53,933,64,2014-10-01T23:55:00,0,28188461,192893
OK,64,53,933,64,2014-10-02T00:00:00,0,28188897,192893
OK,64,53,933,64,2014-10-02T00:05:00,0,28189346,192893
OK,64,53,933,64,2014-10-02T00:10:00,0,28189768,192893
OK,64,53,933,64,2014-10-02T00:15:00,0,28190217,192893
OK,64,53,933,64,2014-10-02T00:20:00,0,28190570,192893
OK,64,53,933,64,2014-10-02T00:30:00,0,28191468,192893
OK,64,53,933,64,2014-10-02T00:35:00,0,28191774,192893
OK,64,53,933,64,2014-10-02T00:40:00,0,28192223,192893
OK,64,53,933,64,2014-10-02T00:45:00,0,28192656,192893
OK,64,53,933,64,2014-10-02T00:50:00,0,28193100,192893
OK,64,53,933,64,2014-10-02T00:55:00,0,28193467,192893
OK,64,53,933,64,2014-10-02T01:05:00,0,28194365,192893
OK,64,53,933,64,2014-10-02T01:10:00,0,28194814,192893
OK,64,53,933,64,2014-10-02T01:15:00,0,28195053,192893
OK,64,53,933,64,2014-10-02T01:30:00,0,28195948,192893
OK,64,53,933,64,2014-10-02T01:35:00,0,28196681,192893
OK,64,53,933,64,2014-10-02T01:40:00,0,28197104,192893
OK,64,53,933,64,2014-10-02T01:45:00,0,28197553,192893
OK,64,53,933,64,2014-10-02T01:50:00,0,28198001,192893
OK,64,53,933,64,2014-10-02T01:55:00,0,28198449,192893
OK,64,53,933,64,2014-10-02T02:00:00,0,28198898,192893
OK,64,53,933,64,2014-10-02T02:05:00,0,28199270,192893
OK,64,53,933,64,2014-10-02T02:10:00,0,28199712,192893
OK,64,53,933,64,2014-10-02T02:15:00,0,28200154,192893
OK,64,53,933,64,2014-10-02T02:20:00,0,28200597,192893
OK,64,53,933,64,2014-10-02T02:25:00,0,28201046,192893
OK,64,53,933,64,2014-10-02T02:30:00,0,28201477,192893
OK,64,53,933,64,2014-10-02T02:45:00,0,28202375,192893
OK,64,53,933,64,2014-10-02T02:50:00,0,28202817,192893
OK,64,53,933,64,2014-10-02T02:55:00,0,28203265,192893
OK,64,53,933,64,2014-10-02T03:00:00,0,28203700,192893
OK,64,53,933,64,2014-10-02T03:10:00,0,28204149,192893
OK,64,53,933,64,2014-10-02T03:25:00,0,28204598,192893
OK,64,53,933,64,2014-10-02T03:30:00,0,28205047,192893
OK,64,53,933,64,2014-10-02T03:35:00,0,28205475,192893
OK,64,53,933,64,2014-10-02T03:40:00,0,28205922,192893
OK,64,53,933,64,2014-10-02T03:45:00,0,28206305,192893
OK,64,53,933,64,2014-10-02T03:55:00,0,28207203,192893
OK,64,53,933,64,2014-10-02T04:00:00,0,28207623,192893
OK,64,53,933,64,2014-10-02T04:05:00,0,28208071,192893
OK,64,53,933,64,2014-10-02T04:10:00,0,28208498,192893
OK,64,53,933,64,2014-10-02T04:15:00,0,28208947,192893
OK,64,53,933,64,2014-10-02T04:20:00,0,28209385,192893
OK,64,53,933,64,2014-10-02T04:25:00,0,28209834,192893
OK,64,53,933,64,2014-10-02T04:30:00,0,28210257,192893
OK,64,53,933,64,2014-10-02T04:35:00,0,28210706,192893
OK,64,53,933,64,2014-10-02T04:40:00,0,28211131,192893
OK,64,53,933,64,2014-10-02T04:45:00,0,28211575,192893
OK,64,53,933,64,2014-10-02T04:50:00,0,28211953,192893
OK,64,53,933,64,2014-10-02T04:55:00,0,28212402,192893
OK,64,53,933,64,2014-10-02T05:00:00,0,28212831,192893
OK,64,53,933,64,2014-10-02T05:05:00,0,28213280,192893
OK,64,53,933,64,2014-10-02T05:10:00,0,28213718,192893
OK,64,53,933,64,2014-10-02T05:15:00,0,28214167,192893
OK,64,53,933,64,2014-10-02T05:20:00,0,28214580,192893
OK,64,53,933,64,2014-10-02T05:25:00,0,28215029,192893
OK,64,53,933,64,2014-10-02T05:30:00,0,28215445,192893
OK,64,53,933,64,2014-10-02T05:35:00,0,28215894,192893
OK,64,53,933,64,2014-10-02T05:40:00,0,28216236,192893
OK,64,53,933,64,2014-10-02T05:45:00,0,28216673,192893
OK,64,53,933,64,2014-10-02T05:50:00,0,28217120,192893
OK,64,53,933,64,2014-10-02T05:55:00,0,28217569,192893
OK,64,53,933,64,2014-10-02T06:00:00,0,28218008,192893
OK,64,53,933,64,2014-10-02T06:05:00,0,28218457,192893
OK,64,53,933,64,2014-10-02T06:10:00,0,28218877,192893
OK,358,9,933,358,2014-10-02T06:15:00,1,28219326,192893
OK,358,9,933,358,2014-10-02T06:20:00,0,28219699,192893
OK,63,54,933,63,2014-10-02T06:25:00,1,28220148,192893
OK,63,54,933,63,2014-10-02T06:30:00,1,28220582,192893
OK,63,54,933,63,2014-10-02T06:35:00,0,28221031,192893
OK,63,54,933,63,2014-10-02T06:40:00,0,28221412,192893
OK,63,54,933,63,2014-10-02T06:45:00,0,28221698,192893
OK,90,37,933,90,2014-10-02T07:00:00,2,28222292,192893
OK,111,30,933,111,2014-10-02T07:05:00,1,28222741,192893
OK,111,30,933,111,2014-10-02T07:10:00,0,28223172,192893
OK,111,30,933,111,2014-10-02T07:15:00,0,28223607,192893
OK,111,30,933,111,2014-10-02T07:20:00,0,28224055,192893
OK,118,28,933,118,2014-10-02T07:25:00,1,28224410,192893
OK,118,28,933,118,2014-10-02T07:30:00,0,28224859,192893
OK,118,28,933,118,2014-10-02T07:35:00,0,28225308,192893
OK,118,28,933,118,2014-10-02T07:40:00,0,28225630,192893
OK,118,28,933,118,2014-10-02T07:50:00,0,28226520,192893
OK,118,28,933,118,2014-10-02T07:55:00,0,28226969,192893
OK,118,28,933,118,2014-10-02T08:00:00,0,28227384,192893
OK,118,28,933,118,2014-10-02T08:05:00,0,28227833,192893
OK,118,28,933,118,2014-10-02T08:10:00,0,28228192,192893
OK,79,43,933,79,2014-10-02T08:15:00,1,28228641,192893
OK,79,43,933,79,2014-10-02T08:20:00,0,28229051,192893
OK,319,10,933,319,2014-10-02T08:25:00,0,28229500,192893
OK,319,10,933,319,2014-10-02T08:30:00,0,28229850,192893
OK,319,10,933,319,2014-10-02T08:35:00,0,28230299,192893
OK,319,10,933,319,2014-10-02T08:40:00,0,28230665,192893
OK,319,10,933,319,2014-10-02T08:45:00,0,28231114,192893
OK,81,42,933,81,2014-10-02T08:50:00,2,28231537,192893
OK,81,42,933,81,2014-10-02T08:55:00,1,28231986,192893
OK,81,42,933,81,2014-10-02T09:00:00,0,28232328,192893
OK,81,42,933,81,2014-10-02T09:10:00,0,28232777,192893
OK,81,42,933,81,2014-10-02T09:15:00,0,28233226,192893
OK,81,42,933,81,2014-10-02T09:20:00,0,28233650,192893
OK,81,42,933,81,2014-10-02T09:25:00,0,28234099,192893
OK,81,42,933,81,2014-10-02T09:30:00,0,28234432,192893
OK,81,42,933,81,2014-10-02T09:35:00,0,28234881,192893
OK,81,42,933,81,2014-10-02T09:40:00,0,28235308,192893
OK,81,42,933,81,2014-10-02T09:45:00,0,28235757,192893
OK,81,42,933,81,2014-10-02T09:50:00,0,28236200,192893
OK,81,42,933,81,2014-10-02T09:55:00,0,28236647,192893
OK,81,42,933,81,2014-10-02T10:00:00,0,28237050,192893
OK,81,42,933,81,2014-10-02T10:05:00,0,28237498,192893
OK,81,42,933,81,2014-10-02T10:10:00,0,28237946,192893
OK,82,41,933,82,2014-10-02T10:15:00,2,28238393,192893
OK,85,40,933,85,2014-10-02T10:20:00,1,28238834,192893
OK,85,40,933,85,2014-10-02T10:25:00,0,28239283,192893
OK,85,40,933,85,2014-10-02T10:30:00,0,28239713,192893
OK,85,40,933,85,2014-10-02T10:35:00,0,28240162,192893
OK,85,40,933,85,2014-10-02T10:40:00,0,28240606,192893
OK,101,33,933,101,2014-10-02T10:45:00,2,28241055,192893
OK,101,33,933,101,2014-10-02T10:50:00,2,28241487,192893
OK,76,44,933,76,2014-10-02T10:55:00,0,28241935,192893
OK,76,44,933,76,2014-10-02T11:00:00,0,28242331,192893
OK,76,44,933,76,2014-10-02T11:05:00,0,28242780,192893
OK,113,30,933,113,2014-10-02T11:10:00,1,28243229,192893
OK,113,30,933,113,2014-10-02T11:15:00,1,28243560,192893
OK,126,27,933,126,2014-10-02T11:20:00,1,28243992,192893
OK,126,27,933,126,2014-10-02T11:25:00,0,28244421,192893
OK,126,27,933,126,2014-10-02T11:30:00,0,28244870,192893
OK,126,27,933,126,2014-10-02T11:35:00,0,28245319,192893
OK,126,27,933,126,2014-10-02T11:40:00,0,28245725,192893
OK,126,27,933,126,2014-10-02T11:45:00,0,28246174,192893
OK,122,27,933,122,2014-10-02T11:50:00,1,28246611,192893
OK,122,27,933,122,2014-10-02T11:55:00,0,28247060,192893
OK,122,27,933,122,2014-10-02T12:00:00,0,28247506,192893
OK,122,27,933,122,2014-10-02T12:05:00,0,28247936,192893
OK,122,27,933,122,2014-10-02T12:10:00,0,28248385,192893
OK,111,30,933,111,2014-10-02T12:15:00,1,28248832,192893
OK,111,30,933,111,2014-10-02T12:20:00,0,28249260,192893
OK,111,30,933,111,2014-10-02T12:25:00,0,28249704,192893
OK,111,30,933,111,2014-10-02T12:30:00,0,28250123,192893
OK,111,30,933,111,2014-10-02T12:35:00,0,28250521,192893
OK,81,42,933,81,2014-10-02T13:20:00,0,28251846,192893
OK,81,42,933,81,2014-10-02T13:30:00,0,28252430,192893
OK,81,42,933,81,2014-10-02T13:35:00,0,28252872,192893
OK,81,42,933,81,2014-10-02T13:40:00,0,28253289,192893
OK,81,42,933,81,2014-10-02T13:45:00,0,28253738,192893
OK,81,42,933,81,2014-10-02T13:50:00,0,28254143,192893
OK,81,42,933,81,2014-10-02T13:55:00,0,28254464,192893
OK,81,42,933,81,2014-10-02T14:10:00,0,28255041,192893
OK,81,42,933,81,2014-10-02T14:15:00,0,28255490,192893
OK,81,42,933,81,2014-10-02T14:20:00,0,28255918,192893
OK,81,42,933,81,2014-10-02T14:25:00,0,28256367,192893
OK,81,42,933,81,2014-10-02T14:30:00,0,28256795,192893
OK,81,42,933,81,2014-10-02T14:35:00,0,28257244,192893
OK,81,42,933,81,2014-10-02T14:40:00,0,28257685,192893
OK,81,42,933,81,2014-10-02T14:45:00,0,28258133,192893
OK,81,42,933,81,2014-10-02T14:50:00,0,28258566,192893
OK,81,42,933,81,2014-10-02T14:55:00,0,28259012,192893
OK,115,29,933,115,2014-10-02T15:00:00,1,28259461,192893
OK,115,29,933,115,2014-10-02T15:05:00,1,28259908,192893
OK,115,29,933,115,2014-10-02T15:10:00,0,28260341,192893
OK,115,29,933,115,2014-10-02T15:15:00,0,28260790,192893
OK,115,29,933,115,2014-10-02T15:20:00,0,28261230,192893
OK,115,29,933,115,2014-10-02T15:25:00,0,28261612,192893
OK,115,29,933,115,2014-10-02T15:30:00,0,28262042,192893
OK,115,29,933,115,2014-10-02T15:40:00,0,28262935,192893
OK,115,29,933,115,2014-10-02T15:45:00,0,28263373,192893
OK,115,29,933,115,2014-10-02T15:50:00,0,28263814,192893
OK,115,29,933,115,2014-10-02T15:55:00,0,28264216,192893
OK,115,29,933,115,2014-10-02T16:00:00,0,28264665,192893
OK,136,25,933,136,2014-10-02T16:05:00,1,28265103,192893